097  
NZUS59 KLOT 111410  
HRRLOT  
 
CHICAGO AREA WEATHER ROUNDUP  
NATIONAL WEATHER SERVICE CHICAGO/ROMEOVILLE IL  
900 AM CDT THU AUG 11 2022  
 
NOTE: "FAIR" INDICATES FEW OR NO CLOUDS BELOW 12,000 FEET WITH NO  
SIGNIFICANT WEATHER AND/OR OBSTRUCTIONS TO VISIBILITY.  
 
* THESE STATIONS ARE NOT UNDER NWS QUALITY CONTROL. THEY ALSO MAY NOT  
REPORT WEATHER SUCH AS PRECIPITATION OR FOG.  
 
ILZ005-006-012>014-019>023-111500-  
NORTHEAST ILLINOIS  
 
CITY SKY/WX TMP DP RH WIND PRES REMARKS  
OHARE PTSUNNY 74 54 49 NE15G24 30.17R  
MIDWAY PTSUNNY 78 55 44 NE18 30.16R  
AURORA MOSUNNY 72 59 63 NE9 30.16R  
LANSING* MOSUNNY 74 62 67 NE10G18 30.15R  
JOLIET* SUNNY 76 65 68 NE13 30.16R  
WAUKEGAN MOSUNNY 72 58 61 NE8 30.19R  
DUPAGE AIRPORT MOSUNNY 74 57 55 NE12 30.17R  
WHEELING MOSUNNY 75 55 49 NE13G20 30.20R  
KANKAKEE* PTSUNNY 73 68 83 N5 30.15R  
MORRIS* PTSUNNY 73 71 93 CALM 30.16R  
NORTHERLY ISL* N/A 73 59 61 NE10 N/A  

 
 
WIZ051-052-058>065-066-070>072-111500-  
SOUTHEAST WISCONSIN  
 
CITY SKY/WX TMP DP RH WIND PRES REMARKS  
MILWAUKEE PTSUNNY 71 60 68 N10 30.20R  
KENOSHA* MOSUNNY 75 57 53 E10 30.20R  
RACINE* MOSUNNY 74 59 59 N9 30.21R  
BURLINGTON MOSUNNY 69 60 74 NE3 30.20S  
WAUKESHA SUNNY 70 55 60 NE6 30.22R  
WEST BEND SUNNY 68 57 68 NE8 30.22R  

 
 
INZ001>003-010>013-019-020-111500-  
NORTHWEST INDIANA  
 
CITY SKY/WX TMP DP RH WIND PRES REMARKS  
GARY* SUNNY 73 57 56 NE10 30.16R  
MICHIGAN CITY* NOT AVBL  
RENSSELAER* NOT AVBL  
VALPARAISO PTSUNNY 73 68 84 NE12 30.15R  

 
 
LMZ740>746-111500-  
SOUTHERN LAKE MICHIGAN  
 
STATION/POSITION TIME SKY/WX TEMP WIND PRES VSBY  
AIR DIR/SP/G  
(UTC) (F) (DEG/KT/KT) (MB) (MI)  
HARRISON CRIB 1300 73 40/ 17/ 19 N/A  
NORTHERLY ISL 1315 71 20/ 7/ 11 N/A  
CALUMET HARBOR 1248 72 20/ 10/ 15 1019.4  
BURNS HARBOR 1240 73 40/ 13/ 14 1020.3  
MICHIGAN CITY 1300 72 50/ 5/ 5 1018.9  

 
 
ABBREVIATIONS USED IN REMARKS  
TC - TEMPERATURE IN CELSIUS  
WCI - WIND CHILL INDEX  
HX - HEAT INDEX  
VSB - VISIBILITY  

 
 
 
CLICK HERE TO GO TO PREVIOUS BULLETINS.

The Nexlab IL Page
The Nexlab IN Page Main Text Page